Temp
-12 -13 -13 -14 -14 -13 -13 -13 -13 -13 -14 -14 -14 -15 -15 -15 -16 -16 -16 -16 -17 -17 -17 -18 -18 -20 -20 -21 -21 -21 -21 -22 -23 -25 -27 -27 -28 -29 -28 -28 -28 -28 -28 -29
-12 -12 -13 -14 -13 -13 -13 -13 -13 -14 -14 -14 -15 -15 -15 -16 -16 -16 -16 -16 -17 -17 -18 -18 -19 -21 -21 -21 -21 -21 -22 -22 -25 -27 -27 -28 -29 -29 -28 -28 -28 -28 -29 -29
-12 -12 -13 -13 -14 -13 -13 -13 -13 -14 -14 -15 -15 -15 -15 -15 -16 -16 -17 -17 -17 -18 -18 -19 -21 -21 -21 -21 -21 -22 -22 -24 -26 -27 -27 -28 -29 -29 -28 -28 -28 -29 -29 -29
-12 -12 -13 -13 -13 -13 -13 -14 -14 -14 -14 -15 -15 -15 -15 -16 -16 -16 -17 -17 -18 -18 -19 -21 -21 -21 -21 -21 -22 -22 -23 -25 -27 -27 -27 -29 -29 -29 -28 -28 -28 -29 -29 -29
-12 -13 -13 -14 -13 -13 -13 -14 -14 -14 -14 -15 -15 -15 -15 -16 -16 -17 -17 -18 -19 -19 -20 -21 -21 -21 -21 -22 -22 -23 -24 -27 -27 -27 -28 -29 -29 -29 -28 -28 -28 -29 -29 -29
-12 -13 -13 -14 -13 -13 -14 -14 -14 -14 -15 -15 -15 -15 -16 -16 -17 -17 -18 -18 -19 -20 -21 -21 -21 -21 -22 -22 -23 -23 -25 -27 -27 -27 -29 -29 -29 -29 -29 -29 -29 -29 -29 -29
-12 -13 -13 -14 -13 -14 -14 -14 -14 -15 -15 -15 -15 -16 -16 -16 -17 -17 -18 -18 -19 -21 -21 -21 -21 -22 -22 -22 -23 -24 -26 -27 -27 -28 -29 -29 -29 -29 -29 -29 -29 -29 -29 -29
-12 -13 -13 -14 -14 -14 -14 -14 -14 -15 -15 -15 -15 -16 -16 -17 -17 -18 -18 -18 -20 -21 -21 -21 -21 -22 -22 -23 -23 -24 -26 -27 -28 -28 -29 -29 -29 -29 -29 -29 -29 -29 -29 -29
-13 -13 -14 -14 -14 -14 -14 -14 -15 -15 -15 -15 -16 -16 -16 -17 -17 -18 -18 -19 -20 -21 -21 -21 -22 -22 -22 -23 -24 -25 -27 -28 -28 -28 -29 -29 -29 -29 -29 -29 -29 -29 -29 -29
-13 -14 -14 -14 -14 -14 -14 -14 -15 -15 -15 -15 -16 -16 -17 -17 -18 -18 -19 -20 -21 -21 -22 -22 -22 -22 -23 -23 -24 -25 -27 -28 -28 -28 -28 -29 -29 -29 -28 -28 -29 -29 -29 -29
-13 -14 -14 -14 -14 -14 -14 -15 -15 -15 -15 -16 -16 -16 -17 -17 -17 -18 -19 -20 -21 -22 -22 -22 -22 -23 -23 -23 -24 -25 -27 -28 -28 -28 -28 -29 -29 -29 -28 -28 -28 -29 -29 -29
-14 -14 -14 -14 -14 -14 -15 -15 -15 -15 -16 -16 -16 -17 -17 -17 -18 -18 -19 -20 -21 -22 -22 -22 -22 -23 -23 -24 -24 -25 -26 -28 -28 -28 -28 -29 -29 -29 -28 -28 -28 -29 -29 -29
-14 -14 -14 -14 -14 -15 -15 -15 -15 -15 -16 -16 -16 -17 -17 -18 -18 -19 -19 -21 -22 -22 -22 -22 -23 -23 -23 -24 -24 -25 -26 -28 -28 -28 -28 -28 -29 -29 -29 -28 -28 -29 -29 -29
-14 -14 -14 -14 -15 -15 -15 -15 -15 -16 -16 -16 -17 -17 -17 -18 -18 -19 -19 -21 -22 -22 -22 -22 -23 -23 -23 -24 -24 -25 -26 -27 -28 -28 -28 -28 -29 -29 -29 -29 -28 -28 -29 -29
-14 -15 -15 -15 -15 -15 -15 -15 -15 -16 -16 -17 -17 -17 -18 -18 -18 -19 -20 -21 -22 -22 -22 -22 -23 -23 -23 -24 -24 -25 -25 -26 -27 -28 -29 -29 -29 -29 -29 -29 -29 -29 -29 -29
-15 -15 -15 -15 -15 -15 -15 -15 -16 -16 -16 -17 -17 -17 -18 -18 -18 -19 -20 -21 -22 -22 -23 -23 -23 -23 -24 -24 -24 -25 -25 -26 -26 -27 -28 -29 -29 -29 -29 -29 -29 -29 -29 -29
-15 -15 -15 -15 -15 -15 -15 -16 -16 -16 -17 -17 -17 -18 -18 -18 -19 -19 -20 -21 -22 -22 -23 -23 -23 -23 -23 -24 -24 -24 -25 -26 -26 -27 -27 -28 -29 -29 -29 -29 -29 -28 -28 -28
-15 -15 -15 -15 -15 -16 -16 -16 -16 -17 -17 -17 -17 -18 -18 -18 -19 -19 -20 -21 -22 -22 -23 -23 -23 -23 -23 -24 -24 -24 -25 -25 -26 -27 -27 -28 -28 -29 -29 -29 -29 -29 -28 -28
-15 -15 -15 -16 -16 -16 -16 -16 -17 -17 -17 -17 -18 -18 -18 -18 -19 -19 -20 -21 -22 -23 -23 -23 -23 -23 -23 -24 -24 -24 -25 -25 -26 -26 -27 -27 -27 -28 -29 -29 -29 -29 -29 -28
-15 -16 -16 -16 -16 -16 -16 -17 -17 -17 -17 -17 -18 -18 -18 -19 -19 -19 -20 -21 -22 -22 -23 -23 -23 -23 -23 -24 -24 -24 -25 -25 -25 -26 -26 -27 -27 -28 -28 -28 -29 -29 -28 -28
-15 -16 -16 -16 -16 -16 -17 -17 -17 -17 -17 -18 -18 -18 -18 -18 -19 -19 -20 -21 -22 -22 -23 -23 -23 -24 -24 -24 -24 -24 -24 -25 -25 -26 -26 -27 -27 -27 -28 -28 -28 -28 -29 -29
-16 -16 -16 -16 -16 -17 -17 -17 -17 -17 -18 -18 -18 -18 -18 -19 -19 -19 -20 -21 -22 -22 -23 -23 -23 -24 -24 -24 -24 -24 -24 -25 -25 -25 -26 -26 -27 -27 -27 -28 -28 -28 -28 -29
-16 -16 -16 -16 -17 -17 -17 -17 -17 -17 -18 -18 -18 -18 -18 -19 -19 -19 -20 -21 -21 -22 -23 -23 -24 -24 -24 -24 -24 -24 -24 -24 -25 -25 -25 -26 -26 -27 -27 -27 -28 -28 -28 -28
-17 -17 -17 -17 -17 -17 -17 -17 -17 -18 -18 -18 -18 -18 -18 -19 -19 -19 -20 -21 -21 -22 -23 -23 -24 -24 -24 -24 -24 -24 -24 -24 -25 -25 -25 -26 -26 -26 -26 -27 -27 -28 -28 -28
-17 -17 -17 -17 -17 -17 -17 -18 -18 -18 -18 -18 -18 -18 -19 -19 -19 -20 -20 -21 -21 -22 -23 -23 -24 -24 -24 -24 -24 -24 -24 -24 -24 -25 -25 -25 -26 -26 -26 -26 -27 -27 -27 -28
-17 -17 -17 -17 -18 -18 -18 -18 -18 -18 -18 -18 -18 -18 -19 -19 -19 -20 -20 -21 -21 -22 -22 -23 -24 -24 -24 -24 -24 -24 -24 -24 -24 -24 -25 -25 -25 -26 -26 -26 -26 -26 -27 -27
-17 -17 -17 -18 -18 -18 -18 -18 -18 -18 -18 -18 -18 -19 -19 -19 -19 -20 -20 -20 -21 -22 -22 -23 -24 -24 -24 -24 -24 -24 -24 -24 -24 -24 -24 -25 -25 -25 -26 -26 -26 -26 -26 -27
Height
5803 5802 5801 5802 5802 5804 5804 5804 5802 5800 5797 5795 5791 5787 5782 5777 5771 5765 5757 5749 5740 5730 5719 5707 5695 5684 5674 5663 5650 5637 5624 5609 5594 5581 5569 5557 5547 5539 5530 5520 5510 5500 5491 5480
5802 5800 5799 5799 5798 5800 5801 5800 5798 5796 5794 5790 5786 5782 5777 5772 5767 5761 5753 5744 5734 5723 5712 5701 5690 5681 5670 5658 5646 5633 5618 5603 5588 5576 5565 5555 5546 5538 5528 5518 5508 5498 5488 5476
5797 5797 5796 5798 5798 5797 5797 5797 5795 5792 5789 5785 5781 5778 5775 5770 5763 5755 5747 5737 5728 5718 5707 5697 5687 5677 5666 5655 5642 5628 5613 5597 5584 5574 5563 5553 5545 5536 5528 5518 5507 5496 5485 5472
5793 5794 5793 5794 5795 5795 5794 5793 5791 5789 5787 5784 5781 5777 5772 5764 5757 5749 5742 5733 5724 5714 5703 5694 5684 5674 5663 5651 5638 5623 5608 5593 5582 5572 5561 5552 5544 5536 5527 5518 5507 5496 5483 5470
5791 5790 5790 5791 5794 5794 5793 5792 5790 5787 5785 5782 5776 5771 5766 5760 5754 5748 5740 5731 5720 5710 5700 5690 5682 5671 5659 5646 5632 5618 5603 5591 5581 5571 5560 5552 5544 5536 5526 5517 5507 5495 5481 5470
5787 5787 5788 5790 5791 5792 5791 5790 5787 5785 5782 5779 5775 5771 5766 5759 5753 5745 5736 5726 5716 5707 5698 5690 5679 5668 5656 5643 5629 5614 5601 5590 5580 5569 5559 5552 5544 5536 5526 5516 5506 5494 5483 5471
5783 5785 5787 5788 5789 5789 5790 5791 5785 5783 5780 5776 5773 5768 5762 5756 5749 5741 5732 5723 5714 5705 5697 5688 5677 5665 5653 5640 5625 5611 5599 5588 5579 5569 5560 5553 5545 5537 5528 5519 5509 5499 5488 5475
5781 5784 5787 5786 5786 5786 5786 5784 5782 5779 5776 5773 5769 5763 5757 5752 5745 5737 5729 5720 5711 5704 5696 5686 5675 5664 5651 5637 5623 5610 5598 5589 5580 5570 5561 5554 5547 5538 5531 5522 5513 5503 5492 5481
5781 5783 5784 5784 5784 5783 5783 5781 5779 5776 5773 5769 5765 5761 5756 5750 5743 5735 5726 5718 5710 5701 5693 5684 5673 5662 5649 5635 5622 5609 5599 5590 5581 5571 5562 5555 5548 5541 5533 5525 5516 5506 5496 5486
5779 5781 5781 5781 5781 5781 5780 5778 5776 5773 5770 5767 5763 5759 5753 5747 5741 5733 5725 5716 5707 5699 5692 5682 5672 5661 5648 5635 5622 5610 5600 5591 5582 5573 5564 5556 5550 5543 5536 5528 5519 5510 5500 5490
5776 5778 5778 5779 5778 5778 5777 5775 5773 5770 5767 5764 5760 5756 5751 5745 5738 5731 5722 5713 5707 5699 5691 5682 5672 5661 5648 5635 5623 5611 5601 5593 5584 5575 5565 5557 5551 5545 5538 5530 5522 5512 5502 5492
5772 5773 5775 5775 5776 5776 5775 5772 5770 5767 5764 5761 5757 5753 5748 5743 5736 5728 5720 5712 5705 5698 5690 5682 5672 5661 5649 5637 5625 5613 5603 5594 5587 5578 5569 5559 5552 5546 5540 5532 5524 5515 5506 5496
5768 5769 5771 5772 5772 5772 5771 5769 5766 5764 5761 5758 5755 5751 5746 5740 5734 5726 5718 5711 5704 5698 5691 5682 5673 5663 5652 5640 5628 5617 5606 5597 5589 5581 5573 5564 5556 5550 5542 5535 5529 5521 5512 5503
5765 5766 5767 5768 5769 5769 5767 5765 5763 5761 5759 5756 5753 5749 5744 5738 5731 5724 5717 5710 5704 5698 5691 5683 5674 5665 5655 5644 5632 5621 5610 5600 5592 5585 5577 5569 5560 5553 5546 5540 5533 5527 5519 5511
5761 5762 5763 5765 5765 5765 5763 5761 5760 5758 5756 5754 5751 5747 5742 5737 5730 5724 5717 5710 5704 5698 5692 5684 5676 5668 5658 5647 5636 5625 5615 5605 5595 5587 5580 5572 5564 5556 5550 5544 5538 5531 5524 5518
5756 5758 5760 5761 5761 5760 5759 5758 5757 5756 5754 5751 5749 5745 5741 5736 5730 5723 5716 5710 5704 5699 5693 5685 5677 5670 5661 5651 5640 5630 5620 5610 5600 5590 5583 5576 5569 5562 5554 5548 5543 5538 5532 5526
5752 5754 5756 5756 5756 5756 5756 5756 5754 5753 5751 5749 5747 5743 5739 5734 5729 5723 5716 5710 5704 5699 5693 5687 5679 5672 5664 5654 5645 5635 5625 5615 5606 5596 5587 5580 5573 5567 5560 5552 5547 5542 5537 5531
5749 5750 5751 5752 5752 5753 5753 5752 5751 5750 5749 5747 5745 5742 5738 5733 5728 5722 5716 5710 5704 5699 5693 5688 5681 5674 5666 5658 5649 5640 5630 5621 5612 5603 5594 5585 5577 5571 5564 5558 5551 5546 5541 5536
5745 5746 5747 5748 5749 5750 5750 5749 5748 5748 5747 5745 5743 5740 5736 5732 5727 5721 5715 5709 5704 5699 5694 5689 5683 5676 5669 5662 5654 5645 5636 5627 5618 5609 5601 5593 5584 5576 5569 5563 5558 5552 5546 5541
5741 5742 5743 5745 5746 5746 5747 5746 5746 5745 5744 5743 5741 5738 5735 5731 5726 5720 5714 5709 5704 5700 5695 5689 5684 5678 5672 5665 5658 5650 5641 5633 5624 5616 5608 5600 5592 5584 5576 5569 5563 5558 5553 5548
5738 5739 5740 5741 5742 5743 5744 5743 5743 5742 5742 5740 5738 5736 5733 5729 5724 5719 5714 5708 5704 5699 5695 5690 5685 5680 5674 5668 5661 5654 5646 5638 5630 5622 5615 5607 5600 5592 5585 5578 5571 5565 5559 5554
5734 5736 5737 5738 5739 5740 5741 5740 5740 5740 5739 5738 5736 5733 5730 5726 5722 5717 5712 5707 5702 5698 5694 5689 5685 5680 5675 5670 5664 5657 5651 5644 5636 5629 5621 5614 5607 5600 5593 5587 5580 5574 5567 5562
5731 5732 5734 5735 5736 5737 5737 5737 5737 5737 5736 5735 5733 5731 5728 5724 5720 5715 5710 5705 5701 5696 5692 5688 5684 5680 5675 5671 5666 5660 5654 5648 5641 5634 5628 5621 5614 5607 5601 5594 5588 5582 5576 5570
5727 5729 5730 5732 5732 5733 5733 5733 5733 5733 5733 5732 5730 5728 5725 5721 5717 5713 5708 5703 5699 5694 5690 5686 5682 5679 5675 5671 5667 5662 5657 5651 5645 5639 5633 5627 5621 5615 5608 5602 5595 5590 5584 5578
5724 5725 5727 5728 5728 5729 5729 5729 5729 5729 5729 5728 5727 5724 5722 5718 5714 5710 5705 5700 5696 5691 5687 5683 5680 5677 5674 5670 5666 5663 5658 5653 5648 5643 5638 5632 5626 5620 5615 5609 5603 5597 5591 5586
5720 5722 5723 5724 5725 5725 5725 5725 5725 5725 5725 5724 5723 5721 5718 5714 5711 5707 5702 5697 5692 5688 5683 5680 5677 5674 5671 5669 5665 5662 5658 5654 5650 5646 5641 5636 5630 5625 5620 5615 5609 5604 5598 5593
5716 5717 5719 5720 5721 5721 5720 5721 5721 5721 5721 5719 5718 5716 5714 5710 5707 5703 5698 5694 5689 5684 5679 5675 5672 5670 5668 5666 5664 5660 5657 5654 5650 5647 5643 5638 5633 5628 5623 5618 5613 5609 5604 5599
Wind_Speed
12 13 15 11 15 12 13 11 11 12 14 13 15 18 23 27 30 34 39 42 44 47 53 55 53 52 51 54 59 60 63 66 65 55 49 47 40 38 41 44 43 44 44 46
11 15 14 13 11 8 7 9 12 13 12 14 18 22 24 29 33 37 41 44 45 50 55 54 51 48 50 56 58 60 64 65 57 49 47 42 38 39 42 42 44 44 46 48
13 13 15 10 6 7 10 10 12 12 14 17 20 24 27 31 35 39 43 46 48 52 53 50 46 48 53 55 57 61 63 60 50 47 45 39 37 40 42 41 44 45 48 50
14 13 15 9 4 5 9 11 11 13 14 16 20 25 30 34 38 42 44 45 48 52 48 44 46 49 53 53 58 61 62 52 46 46 44 36 37 39 41 42 45 46 49 51
14 14 12 9 3 4 7 9 10 12 15 18 24 30 33 35 38 41 42 44 49 47 44 44 45 50 52 54 59 61 57 46 44 46 41 35 37 39 42 43 45 47 52 51
15 13 8 6 6 4 6 6 11 14 17 20 24 28 30 33 36 39 40 46 48 44 41 41 47 50 51 57 59 59 50 44 45 46 38 34 37 39 42 44 47 49 51 49
15 9 9 8 5 5 7 10 13 16 19 23 26 28 30 34 36 38 42 46 46 40 38 42 47 48 53 57 58 56 47 44 45 45 35 33 36 38 41 43 45 46 47 46
11 8 6 7 7 8 11 13 15 19 22 25 27 29 32 34 36 38 43 44 41 37 38 43 46 48 55 56 56 53 45 43 44 44 34 33 35 37 39 41 42 44 45 44
8 6 8 8 7 10 13 15 17 20 23 25 26 28 31 33 35 38 41 40 37 36 39 44 44 50 54 56 55 51 42 41 44 44 36 31 33 35 37 39 40 43 45 43
11 8 8 8 10 11 14 16 18 20 21 22 24 27 30 32 34 38 39 38 35 35 39 43 43 50 53 54 53 50 41 40 43 45 40 31 32 34 34 37 39 42 43 45
11 10 11 9 9 11 13 15 18 20 20 21 24 27 29 31 34 36 38 35 33 34 39 42 44 50 53 53 52 50 41 38 40 44 42 34 30 32 34 37 39 42 45 48
13 14 10 10 9 11 12 15 17 17 18 21 24 26 28 30 33 36 37 35 33 34 38 40 44 50 52 52 51 50 43 37 38 41 44 37 31 34 35 35 39 42 45 47
17 15 12 10 11 11 14 16 16 16 18 21 23 25 26 30 33 37 38 33 33 33 37 39 43 48 51 52 52 50 45 39 36 38 42 42 30 31 35 35 37 39 42 44
16 15 11 12 11 13 15 15 14 15 18 20 22 22 26 29 34 38 37 32 31 31 36 38 41 46 50 52 52 50 48 43 36 34 38 41 40 29 32 34 34 37 39 42
16 13 13 12 12 14 14 13 13 15 17 18 18 22 25 29 33 36 35 32 30 30 34 37 38 43 47 50 51 51 50 47 42 36 34 37 41 38 28 31 33 34 37 38
14 14 13 12 13 13 11 11 12 14 15 15 17 21 23 27 31 34 34 32 29 28 31 35 36 39 44 47 49 50 50 49 47 41 35 33 36 39 35 27 29 31 32 34
14 12 12 13 12 10 11 11 12 12 13 11 17 19 22 26 29 33 33 33 29 27 28 33 36 37 41 44 46 48 50 50 49 47 42 35 32 34 37 34 26 29 32 32
12 13 12 10 10 11 10 10 10 10 9 12 14 17 21 25 29 31 32 32 29 26 25 30 34 37 39 41 44 46 48 49 49 48 47 42 35 32 33 35 35 29 30 33
11 10 11 11 11 10 9 9 9 8 6 10 12 16 20 24 27 30 31 30 29 27 25 26 31 35 38 39 41 44 45 47 48 48 47 46 44 39 35 32 32 34 33 29
13 12 11 10 9 10 8 10 8 6 6 8 10 15 20 23 26 28 30 30 28 27 26 25 26 31 35 37 39 41 43 45 46 46 46 46 45 45 42 39 33 32 33 35
10 10 10 10 10 9 9 9 9 6 6 7 10 15 19 23 24 28 30 29 28 27 26 26 25 27 31 35 37 38 40 42 43 45 45 44 44 43 43 44 42 38 33 32
12 12 12 10 10 10 10 10 10 8 7 9 11 15 20 22 24 28 31 31 29 27 25 24 25 24 26 30 34 35 37 38 40 42 43 44 42 42 42 41 41 41 41 40
12 12 11 11 11 11 11 12 12 10 10 11 14 17 21 24 25 28 32 31 29 27 25 24 23 25 24 26 29 33 33 35 36 38 39 40 41 41 41 40 39 40 39 40
13 13 12 12 12 12 13 13 14 13 13 14 17 20 22 24 26 29 32 31 29 27 25 23 22 23 24 24 25 28 30 31 33 35 35 36 37 39 40 40 38 38 38 39
13 13 12 13 13 13 14 15 17 17 16 17 19 21 23 25 27 29 32 32 28 26 26 22 21 20 22 24 23 24 26 27 29 31 33 34 34 35 36 37 38 37 37 36
14 13 13 14 14 14 16 17 18 19 19 20 21 22 23 25 27 29 32 34 31 27 29 25 20 19 19 21 22 21 22 23 25 26 29 30 31 32 32 33 34 36 36 36
13 14 15 15 15 16 17 16 17 19 20 20 21 22 23 25 28 29 32 36 33 31 30 26 20 17 17 18 21 20 20 20 22 23 24 26 28 29 30 31 31 32 33 34
Wind_Direction
289 279 278 261 239 262 255 284 312 311 314 323 319 326 332 335 336 335 334 333 332 332 334 335 335 337 337 336 339 338 338 338 337 339 342 343 346 349 349 348 348 347 347 345
278 279 276 267 274 259 284 317 319 320 332 333 332 336 341 339 337 335 335 333 334 335 335 335 338 338 337 340 339 340 340 338 340 344 345 346 350 352 352 351 351 350 350 349
291 296 276 262 240 286 318 329 329 340 344 341 338 337 338 336 335 336 336 336 336 335 336 338 340 339 341 340 341 342 341 341 345 347 347 350 353 354 353 354 355 354 354 353
289 292 279 257 259 300 320 334 342 346 338 339 333 333 337 336 337 337 335 334 334 336 338 341 341 341 341 343 344 344 342 346 349 350 350 354 355 355 355 358 358 358 358 359
281 286 275 253 268 318 325 342 342 329 334 334 332 335 338 335 334 333 332 333 336 339 342 344 341 343 345 346 347 345 348 350 352 353 354 356 357 357 358 0 0 2 2 3
278 275 240 229 271 320 327 336 323 331 332 329 327 330 331 331 332 332 333 337 338 341 346 341 345 348 348 349 349 349 352 354 356 355 357 357 359 0 1 2 3 6 4 4
272 244 188 220 271 289 316 315 322 327 326 327 329 332 331 333 334 334 337 337 338 347 343 346 349 351 352 352 352 353 355 358 358 358 359 359 2 2 4 5 5 7 7 7
244 184 180 234 274 299 309 319 322 324 325 328 331 332 334 334 334 336 336 337 344 347 347 351 353 355 355 354 355 357 359 360 0 1 2 1 3 3 5 6 7 9 12 12
202 196 207 237 264 290 307 312 318 323 327 331 332 331 331 334 336 336 337 342 347 349 352 354 356 358 357 358 359 1 1 1 3 4 4 2 5 6 6 7 9 11 14 17
211 212 225 245 273 295 300 310 320 324 326 328 329 330 333 336 337 338 339 346 354 352 355 358 359 360 1 1 2 3 3 3 5 5 5 3 5 7 8 11 12 15 16 20
217 222 233 250 273 290 301 315 323 323 326 328 329 333 336 339 342 339 345 355 355 355 359 1 2 3 4 4 6 7 5 5 5 6 6 5 7 9 11 12 14 17 17 21
219 233 239 250 272 286 304 318 321 322 326 329 331 337 341 345 344 346 353 356 358 358 2 4 5 8 8 7 9 11 9 7 8 9 10 8 8 9 12 14 16 18 20 21
228 241 252 260 276 292 309 318 318 323 328 331 336 341 347 349 349 354 357 358 359 1 4 6 8 11 13 12 12 14 14 9 9 11 13 13 10 11 11 15 17 19 21 23
232 239 248 258 276 294 307 313 316 324 327 333 341 349 353 354 357 357 359 360 1 1 5 8 9 12 14 14 14 15 18 16 11 10 12 15 15 12 15 16 16 20 21 24
234 236 245 263 279 296 302 306 317 323 328 338 347 356 2 3 0 357 360 2 3 1 6 8 8 12 14 16 16 17 19 20 17 13 11 13 16 18 15 19 20 20 22 23
226 236 251 266 283 287 294 305 315 320 332 343 355 6 10 9 0 355 1 4 4 1 3 7 9 11 14 16 16 17 19 21 22 19 16 14 15 19 21 18 23 25 25 26
232 244 259 267 270 282 289 303 308 321 334 349 6 11 12 7 358 353 0 6 6 360 1 5 8 8 12 16 17 16 18 21 23 24 22 19 17 18 22 24 25 26 28 28
237 244 252 256 265 275 288 296 307 323 330 357 10 11 9 4 356 354 357 3 6 0 358 3 7 9 13 15 17 17 17 20 22 25 27 26 24 21 22 27 29 27 27 30
225 232 243 253 266 276 283 293 308 311 332 359 6 5 2 1 358 354 354 357 2 2 357 359 3 9 12 13 16 18 17 18 21 24 27 30 31 30 28 28 29 33 33 30
232 238 246 255 262 267 276 290 295 282 329 350 355 357 358 356 354 350 350 352 354 359 1 354 357 4 9 11 14 17 18 18 19 23 25 29 32 34 34 34 33 32 33 36
234 236 239 246 255 262 273 279 276 267 310 327 339 348 347 346 345 347 348 348 349 350 357 356 351 358 3 8 12 14 17 18 18 20 24 27 29 33 36 38 38 37 35 35
231 236 241 243 250 260 270 269 256 263 292 310 324 335 338 336 339 342 345 347 347 346 350 350 351 350 357 2 8 11 14 16 19 20 21 24 28 30 33 36 38 40 40 40
228 233 236 243 251 259 263 266 248 262 280 297 312 324 329 333 335 338 341 344 345 345 346 341 345 349 349 353 2 6 10 14 16 19 21 21 24 28 31 33 36 37 39 40
230 235 242 247 249 258 260 266 250 261 275 291 305 316 324 329 332 336 340 342 344 342 340 335 337 342 346 346 353 360 4 9 14 16 18 20 21 25 27 29 33 34 35 37
232 237 239 241 254 253 267 268 254 262 277 290 300 313 322 326 329 334 337 341 341 336 332 331 330 331 337 344 345 350 359 3 8 12 15 18 19 21 23 26 28 31 33 33
232 236 241 249 249 259 278 272 261 267 279 292 303 313 317 322 327 331 335 338 341 334 326 328 322 321 326 335 342 343 349 356 360 5 10 13 16 18 19 21 24 27 28 30
232 235 241 246 254 274 274 269 271 276 284 294 301 309 314 319 324 327 333 337 341 338 326 325 314 311 315 323 334 338 339 345 351 356 3 7 9 12 15 18 19 19 20 21